Hourly Weather Florianópolis

Today, 25 October, Sunday

Time Temperature Precipitation Wind Pressure Humidity
00:00 +21°C° 0.1 mm 2 mps 758 mmHg 93%
01:00 +23°C° 0.1 mm 1 mps 758 mmHg 93%
02:00 +23°C° 0.1 mm 1 mps 757 mmHg 93%
03:00 +23°C° 0.1 mm 1 mps 757 mmHg 93%
04:00 +23°C° 0 mm 1 mps 757 mmHg 94%
05:00 +23°C° 0 mm 1 mps 758 mmHg 94%
06:00 +23°C° 0 mm 1 mps 758 mmHg 94%
07:00 +24°C° 0.1 mm 1 mps 758 mmHg 89%
08:00 +25°C° 0.1 mm 2 mps 758 mmHg 84%
09:00 +26°C° 0.1 mm 2 mps 759 mmHg 79%
10:00 +26°C° 0.9 mm 3 mps 758 mmHg 81%
11:00 +26°C° 0.9 mm 3 mps 758 mmHg 83%
12:00 +26°C° 0.9 mm 4 mps 758 mmHg 86%
13:00 +26°C° 0.8 mm 4 mps 758 mmHg 87%
14:00 +25°C° 0.8 mm 4 mps 758 mmHg 88%
15:00 +25°C° 0.8 mm 4 mps 757 mmHg 89%
16:00 +25°C° 0.3 mm 4 mps 757 mmHg 90%
17:00 +23°C° 0.3 mm 4 mps 757 mmHg 91%
18:00 +23°C° 0.3 mm 4 mps 757 mmHg 92%
19:00 +23°C° 0.3 mm 4 mps 758 mmHg 93%
20:00 +23°C° 0.3 mm 4 mps 758 mmHg 93%
21:00 +22°C° 0.3 mm 4 mps 759 mmHg 94%
22:00 +22°C° 0.4 mm 3 mps 759 mmHg 94%
23:00 +22°C° 0.4 mm 3 mps 759 mmHg 94%

Tomorrow, 26 October, Monday

Time Temperature Precipitation Wind Pressure Humidity
00:00 +22°C° 0.4 mm 3 mps 759 mmHg 95%
01:00 +22°C° 0.3 mm 3 mps 758 mmHg 95%
02:00 +22°C° 0.3 mm 3 mps 758 mmHg 95%
03:00 +22°C° 0.3 mm 3 mps 757 mmHg 95%
04:00 +22°C° 0.1 mm 3 mps 757 mmHg 95%
05:00 +21°C° 0.1 mm 3 mps 757 mmHg 95%
06:00 +21°C° 0.1 mm 3 mps 757 mmHg 95%
07:00 +22°C° 0.1 mm 3 mps 757 mmHg 92%
08:00 +23°C° 0.1 mm 4 mps 757 mmHg 88%
09:00 +25°C° 0.1 mm 4 mps 757 mmHg 84%
10:00 +26°C° 0.1 mm 4 mps 757 mmHg 80%
11:00 +27°C° 0.1 mm 5 mps 756 mmHg 76%
12:00 +27°C° 0.1 mm 5 mps 756 mmHg 72%
13:00 +28°C° 0 mm 5 mps 755 mmHg 71%
14:00 +28°C° 0 mm 5 mps 755 mmHg 69%
15:00 +28°C° 0 mm 5 mps 754 mmHg 68%
16:00 +27°C° 0 mm 4 mps 754 mmHg 73%
17:00 +26°C° 0 mm 4 mps 754 mmHg 78%
18:00 +25°C° 0 mm 3 mps 754 mmHg 84%
19:00 +24°C° 0 mm 3 mps 754 mmHg 86%
20:00 +24°C° 0 mm 3 mps 755 mmHg 89%
21:00 +22°C° 0 mm 3 mps 755 mmHg 92%
22:00 +22°C° 0 mm 3 mps 755 mmHg 91%
23:00 +22°C° 0 mm 3 mps 755 mmHg 91%

Day after tomorrow, 27 October, Tuesday

Time Temperature Precipitation Wind Pressure Humidity
00:00 +22°C° 0 mm 3 mps 755 mmHg 91%
01:00 +22°C° 0.2 mm 3 mps 754 mmHg 91%
02:00 +23°C° 0.2 mm 2 mps 754 mmHg 91%
03:00 +23°C° 0.2 mm 2 mps 753 mmHg 92%
04:00 +23°C° 0.6 mm 2 mps 754 mmHg 93%
05:00 +23°C° 0.6 mm 2 mps 754 mmHg 94%
06:00 +21°C° 0.6 mm 2 mps 754 mmHg 96%
07:00 +21°C° 0.9 mm 3 mps 754 mmHg 95%
08:00 +21°C° 0.9 mm 3 mps 755 mmHg 94%
09:00 +21°C° 0.9 mm 4 mps 755 mmHg 93%
10:00 +22°C° 0.1 mm 4 mps 755 mmHg 88%
11:00 +23°C° 0.1 mm 4 mps 755 mmHg 82%
12:00 +25°C° 0.1 mm 4 mps 755 mmHg 77%
13:00 +25°C° 0 mm 5 mps 754 mmHg 76%
14:00 +25°C° 0 mm 5 mps 754 mmHg 75%
15:00 +25°C° 0 mm 5 mps 754 mmHg 74%
16:00 +23°C° 0 mm 5 mps 754 mmHg 77%
17:00 +22°C° 0 mm 4 mps 754 mmHg 80%
18:00 +21°C° 0 mm 4 mps 754 mmHg 82%
19:00 +21°C° 0 mm 4 mps 755 mmHg 83%
20:00 +20°C° 0 mm 3 mps 755 mmHg 84%
21:00 +20°C° 0 mm 3 mps 756 mmHg 85%
22:00 +20°C° 0 mm 2 mps 756 mmHg 86%
23:00 +21°C° 0 mm 1 mps 755 mmHg 86%

28 October, Wednesday

Time Temperature Precipitation Wind Pressure Humidity
00:00 +20°C° 0 mm 1 mps 755 mmHg 86%
01:00 +20°C° 0 mm 1 mps 755 mmHg 88%
02:00 +20°C° 0 mm 1 mps 755 mmHg 89%
03:00 +19°C° 0 mm 1 mps 754 mmHg 91%
04:00 +19°C° 0 mm 1 mps 755 mmHg 91%
05:00 +19°C° 0 mm 1 mps 755 mmHg 92%
06:00 +19°C° 0 mm 1 mps 755 mmHg 92%
07:00 +22°C° 0 mm 1 mps 755 mmHg 82%
08:00 +24°C° 0 mm 1 mps 756 mmHg 72%
09:00 +26°C° 0 mm 1 mps 756 mmHg 62%
10:00 +27°C° 0 mm 1 mps 755 mmHg 61%
11:00 +27°C° 0 mm 2 mps 755 mmHg 60%
12:00 +28°C° 0 mm 3 mps 755 mmHg 58%
13:00 +28°C° 0 mm 3 mps 754 mmHg 61%
14:00 +27°C° 0 mm 3 mps 754 mmHg 64%
15:00 +26°C° 0 mm 3 mps 754 mmHg 67%
16:00 +25°C° 0 mm 3 mps 754 mmHg 72%
17:00 +24°C° 0 mm 3 mps 754 mmHg 77%
18:00 +22°C° 0 mm 3 mps 754 mmHg 81%
19:00 +21°C° 0 mm 2 mps 755 mmHg 83%
20:00 +21°C° 0 mm 1 mps 755 mmHg 85%
21:00 +20°C° 0 mm 1 mps 756 mmHg 87%
22:00 +20°C° 0 mm 1 mps 756 mmHg 88%
23:00 +20°C° 0 mm 1 mps 756 mmHg 90%

29 October, Thursday

Time Temperature Precipitation Wind Pressure Humidity
00:00 +20°C° 0 mm 1 mps 757 mmHg 91%
01:00 +19°C° 0 mm 1 mps 756 mmHg 90%
02:00 +19°C° 0 mm 1 mps 756 mmHg 90%
03:00 +19°C° 0 mm 1 mps 755 mmHg 90%
04:00 +19°C° 0 mm 1 mps 755 mmHg 88%
05:00 +20°C° 0 mm 1 mps 756 mmHg 86%
06:00 +18°C° 0 mm 0 mps 756 mmHg 84%
07:00 +21°C° 0 mm 1 mps 756 mmHg 81%
08:00 +23°C° 0 mm 1 mps 756 mmHg 78%
09:00 +24°C° 0 mm 1 mps 756 mmHg 74%
10:00 +25°C° 0.2 mm 1 mps 756 mmHg 75%
11:00 +25°C° 0.2 mm 2 mps 756 mmHg 75%
12:00 +26°C° 0.2 mm 2 mps 755 mmHg 76%
13:00 +25°C° 0.7 mm 2 mps 755 mmHg 82%
14:00 +24°C° 0.7 mm 2 mps 755 mmHg 88%
15:00 +23°C° 0.7 mm 2 mps 754 mmHg 94%
16:00 +23°C° 2 mm 2 mps 754 mmHg 95%
17:00 +23°C° 2 mm 1 mps 754 mmHg 96%
18:00 +23°C° 2 mm 1 mps 754 mmHg 96%
19:00 +23°C° 0.8 mm 1 mps 755 mmHg 96%
20:00 +23°C° 0.8 mm 2 mps 755 mmHg 97%
21:00 +21°C° 0.8 mm 2 mps 756 mmHg 97%
22:00 +21°C° 0.6 mm 2 mps 756 mmHg 96%
23:00 +21°C° 0.6 mm 3 mps 756 mmHg 96%

30 October, Friday

Time Temperature Precipitation Wind Pressure Humidity
00:00 +21°C° 0.6 mm 4 mps 756 mmHg 95%
01:00 +21°C° 0.1 mm 4 mps 756 mmHg 94%
02:00 +20°C° 0.1 mm 5 mps 756 mmHg 93%
03:00 +20°C° 0.1 mm 6 mps 755 mmHg 92%
04:00 +20°C° 0 mm 6 mps 756 mmHg 92%
05:00 +19°C° 0 mm 6 mps 756 mmHg 91%
06:00 +19°C° 0 mm 6 mps 757 mmHg 91%
07:00 +19°C° 0 mm 5 mps 757 mmHg 88%
08:00 +20°C° 0 mm 5 mps 758 mmHg 84%
09:00 +20°C° 0 mm 5 mps 759 mmHg 80%
10:00 +21°C° 0 mm 5 mps 759 mmHg 77%
11:00 +22°C° 0 mm 5 mps 759 mmHg 73%
12:00 +22°C° 0 mm 5 mps 759 mmHg 69%
13:00 +22°C° 0 mm 5 mps 759 mmHg 68%
14:00 +22°C° 0 mm 5 mps 759 mmHg 67%
15:00 +22°C° 0 mm 6 mps 759 mmHg 65%
16:00 +22°C° 0 mm 6 mps 759 mmHg 66%
17:00 +21°C° 0 mm 6 mps 760 mmHg 67%
18:00 +21°C° 0 mm 6 mps 760 mmHg 68%
19:00 +20°C° 0 mm 6 mps 761 mmHg 70%
20:00 +19°C° 0 mm 6 mps 762 mmHg 72%
21:00 +19°C° 0 mm 6 mps 762 mmHg 73%
22:00 +17°C° 0 mm 6 mps 763 mmHg 75%
23:00 +16°C° 0 mm 5 mps 763 mmHg 77%
Show more